MDT,Max TemperatureF,Mean TemperatureF,Min TemperatureF,Max Dew PointF,MeanDew PointF,Min DewpointF,Max Humidity, Mean Humidity, Min Humidity, Max Sea Level PressureIn, Mean Sea Level PressureIn, Min Sea Level PressureIn, Max VisibilityMiles, Mean VisibilityMiles, Min VisibilityMiles, Max Wind SpeedMPH, Mean Wind SpeedMPH, Max Gust SpeedMPH,PrecipitationIn, CloudCover, Events, WindDirDegrees
2012-10-1,85,69,53,46,39,33,71,44,16,30.01,29.94,29.87,10,10,10,14,5,20,0.00,0,,84
2012-10-2,89,72,54,45,37,27,64,34,11,30.00,29.89,29.77,10,10,10,18,8,25,0.00,0,,316
2012-10-3,91,74,57,33,29,26,39,21,10,29.93,29.85,29.79,10,10,10,21,10,33,0.00,0,,272
2012-10-4,89,70,51,34,31,28,45,29,13,30.04,29.97,29.91,10,10,10,21,8,25,0.00,0,,249
2012-10-5,87,70,51,38,30,20,47,29,10,30.02,29.92,29.82,10,10,10,24,9,32,0.00,0,,263
2012-10-6,85,68,54,32,28,24,38,26,13,29.95,29.85,29.76,10,10,10,18,7,26,0.00,0,,265
2012-10-7,78,65,52,44,36,24,64,43,21,30.01,29.89,29.81,10,10,10,20,8,25,0.00,0,,126
2012-10-8,84,65,46,41,36,28,71,43,15,30.00,29.91,29.82,10,10,10,18,7,23,0.00,0,,324
2012-10-9,84,67,49,37,30,25,48,31,13,29.95,29.89,29.83,10,10,10,15,7,21,0.00,0,,264
2012-10-10,86,65,46,33,30,25,56,29,13,30.00,29.91,29.83,10,10,10,8,3,,0.00,0,,243
2012-10-11,78,66,54,54,41,32,75,47,30,29.99,29.91,29.84,10,10,6,9,4,,0.04,2,Rain,32
2012-10-12,84,68,53,54,40,19,77,46,12,30.05,29.89,29.78,10,10,10,25,8,39,0.00,3,Thunderstorm,238
2012-10-13,75,60,44,34,30,24,62,39,15,30.05,29.98,29.90,10,10,10,20,10,25,0.00,0,,256
2012-10-14,78,62,43,34,29,26,49,32,15,30.15,30.06,29.99,10,10,10,20,8,26,0.00,0,,63
2012-10-15,78,64,49,35,32,27,47,33,19,30.08,29.97,29.88,10,10,10,14,6,18,0.00,0,,56
2012-10-16,83,63,43,31,25,21,53,32,10,29.92,29.81,29.72,10,10,10,15,6,20,0.00,0,,250
2012-10-17,84,66,48,31,26,20,35,25,14,29.85,29.78,29.71,10,10,10,22,11,29,0.00,0,,263
2012-10-18,86,69,51,34,29,24,44,28,11,29.96,29.87,29.81,10,10,10,21,9,25,0.00,0,,253
2012-10-19,84,62,40,29,22,16,40,25,9,29.96,29.88,29.81,10,10,10,12,4,14,0.00,0,,246
2012-10-20,85,68,51,38,30,20,38,28,17,29.85,29.77,29.68,10,10,10,21,7,29,0.00,0,,255
2012-10-21,81,64,47,45,38,33,56,40,23,29.99,29.85,29.75,10,10,2,36,7,55,T,2,Rain-Thunderstorm,236
2012-10-22,79,60,41,39,34,31,65,42,19,29.93,29.87,29.81,10,10,10,21,7,28,0.00,0,,264
2012-10-23,84,63,42,35,30,23,53,33,12,29.92,29.84,29.77,10,10,10,16,6,23,0.00,0,,253
2012-10-24,81,62,43,36,29,25,49,32,14,29.85,29.79,29.73,10,10,10,24,10,32,0.00,0,,262
2012-10-25,77,59,41,30,17,3,45,26,6,29.96,29.88,29.80,10,10,10,18,5,23,0.00,0,,263
2012-10-26,68,54,40,30,18,9,49,32,15,30.13,30.04,29.94,10,10,10,26,14,36,0.00,0,,81
2012-10-27,65,50,35,32,28,25,64,46,28,30.16,30.08,29.97,10,10,10,14,6,17,0.00,0,,66
2012-10-28,74,54,34,32,26,20,69,43,16,30.13,30.06,29.98,10,10,9,8,4,10,0.00,0,,253
2012-10-29,82,58,33,24,18,10,48,28,7,30.16,30.05,29.95,10,10,9,22,6,37,0.00,0,,282
2012-10-30,82,58,34,16,12,8,35,21,6,30.08,29.99,29.90,10,10,10,18,6,23,0.00,0,,236
2012-10-31,79,57,34,18,12,7,35,21,7,30.06,29.99,29.92,10,9,5,9,2,13,0.00,0,,232